Hourly Weather Roundup
Issued by NWS Central Illinois

Home | Current Version | Previous Version | Graphics & Text | Print | Product List | Glossary On
Versions: 1 2 3 4 5 6 7 8 9 10 11 12 13 14 15 16 17 18 19 20 21 22 23 24 25 26 27 28 29 30 31 32 33 34 35 36 37 38 39 40 41 42 43 44 45 46 47 48 49 50
000
NZUS43 KILX 200710
HWRILX

Area Weather Roundup
National Weather Service Lincoln IL
200 AM CDT FRI OCT 20 2017

NOTE:  "FAIR" indicates few or no clouds below 12,000 feet, with
       no sigificant weather and/or obstructions to visibility.


CITY           SKY/WX    TMP DP  RH WIND       PRES   REMARKS
Bloomington    FAIR      54  48  80 S9        30.17S
Champaign      FAIR      54  48  80 S7        30.19S
Danville       FAIR      53  50  90 S3        30.18R
Decatur        FAIR      56  49  77 S8        30.18R
Effingham      FAIR      51  50  98 E3        30.22R
Flora          FAIR      52  49  89 SE3       30.21S
Galesburg      FAIR      63  57  81 S7        30.12S
Jacksonville   FAIR      60  49  69 S6        30.14S
Lacon          FAIR      57  50  76 SE5       30.12F
Lawrenceville  FAIR      53  50  89 CALM      30.22R
Litchfield     FAIR      56  50  78 S7        30.17F
$$


CITY           SKY/WX    TMP DP  RH WIND       PRES   REMARKS
Lincoln        FAIR      58  51  78 S9        30.16S
Macomb         FAIR      55  50  82 S9        30.13S
Mattoon        FAIR      58  52  80 S7        30.19R
Mt Carmel AP   FAIR      51  49  92 E3        30.22R
Olney-Noble AP FAIR      52  50  93 CALM      30.22R
Paris AP       FAIR      53  50  89 SE5       30.21R
Peoria         FAIR      56  50  80 S6        30.14R
Pontiac        FAIR      52  51  98 S6        30.16F
Rantoul        FAIR      53  50  88 SE3       30.19S
Robinson       FAIR      48  48  99 CALM      30.22S
Springfield    FAIR      61  51  70 S9        30.15S
Taylorville    FAIR      58  50  75 S8        30.17S
$$

...REGIONAL REPORTS...


CITY           SKY/WX    TMP DP  RH WIND       PRES   REMARKS
Chicago O`Hare FAIR      52  39  61 S6        30.14S
Kankakee       FAIR      50  48  91 SE5       30.18R
Moline         FAIR      57  48  72 CALM      30.09S
Mount Sterling FAIR      55  49  82 S7        30.12S
Mount Vernon   FAIR      45  45 100 CALM      30.21R FOG
Pittsfield     FAIR      56  50  82 S5        30.14F
Quincy         NOT AVBL
Rockford       FAIR      51  41  68 S5        30.14R
$$


CITY           SKY/WX    TMP DP  RH WIND       PRES   REMARKS
Burlington     FAIR      60  52  74 S8        30.10R
Cedar Rapids   FAIR      55  50  83 S6        30.06S
Des Moines     FAIR      59  52  77 S10       30.02S
Kirksville     FAIR      57  52  83 S6        30.10S
Ottumwa        FAIR      58  50  75 S10       30.06R
St Louis       FAIR      62  51  67 S5        30.16S
$$


CITY           SKY/WX    TMP DP  RH WIND       PRES   REMARKS
Terre Haute    FAIR      50  47  89 E3        30.21S
Evansville     FAIR      51  49  92 CALM      30.23S FOG
Indianapolis   FAIR      55  50  83 CALM      30.23S
Lafayette      FAIR      51  50  96 CALM      30.20R
Madison        FAIR      54  38  54 S8        30.09F
Milwaukee      FAIR      55  31  39 S8        30.12F
$$






USA.gov is the U.S. government's official web portal to all federal, state and local government web resources and services.